Weather History for Sauk Centre, MN

Change the Weather History Date:

Thursday, April 11, 2013

  Actual Average (KGHW) Record (KGHW)
Temperature  
Mean Temperature 30 °F -  
Max Temperature 33 °F 53 °F 81 °F (1968)
Min Temperature 26 °F 30 °F 13 °F (1957)
Degree Days  
Heating Degree Days 36    
Moisture  
Dew Point 25 °F    
Average Humidity 81    
Maximum Humidity 100    
Minimum Humidity 51    
Precipitation  
Precipitation 0.01 in - - ()
Sea Level Pressure  
Sea Level Pressure 29.78 in    
Wind  
Wind Speed 15 mph (NE)    
Max Wind Speed 25 mph    
Max Gust Speed 34 mph    
Visibility 6 miles    
Events Snow    
Averages and records for this station are not official NWS values.
T = Trace of Precipitation, MM = Missing Value Source: NWS Daily Summary

Daily Weather History Graph

Daily Weather History Graph

Search for Another Location

Airport:

Trip Planner

Search our weather history database for the weather conditions in past years. The results will help you decide how hot, cold, wet, or windy it might be!

Date:

Astronomy

Apr. 11, 2013 Rise Set
Actual Time 6:40 AM CDT 8:01 PM CDT
Civil Twilight 6:09 AM CDT 8:32 PM CDT
Nautical Twilight 5:32 AM CDT 9:09 PM CDT
Astronomical Twilight 4:53 AM CDT 9:49 PM CDT
Moon 7:08 AM CDT (4/11) 9:42 PM CDT (4/11)
Length of Visible Light 14h 22m
Length of Day
13h 20m
New Moon, 2% of the Moon is Illuminated
Apr 11
New Moon
Apr 18
First Quarter
Apr 25
Full
May 2
Last Quarter
May 9
New

Hourly Weather History & Observations

Time (CDT) Temp. Windchill Dew Point Humidity Pressure Visibility Wind Dir Wind Speed Gust Speed Precip Events Conditions
12:15 AM 33.8 °F 24.3 °F 17.6 °F 52% 29.94 in 10.0 mi ENE 13.8 mph 18.4 mph N/A   Overcast
12:35 AM 33.8 °F 23.9 °F 17.6 °F 52% 29.92 in 10.0 mi ENE 15.0 mph 20.7 mph N/A   Overcast
12:55 AM 33.8 °F 24.3 °F 17.6 °F 52% 29.91 in 10.0 mi ENE 13.8 mph 19.6 mph N/A   Overcast
1:15 AM 32.0 °F 22.1 °F 15.8 °F 51% 29.90 in 10.0 mi ENE 13.8 mph 19.6 mph N/A   Overcast
1:35 AM 32.0 °F 21.6 °F 17.6 °F 55% 29.90 in 10.0 mi ENE 15.0 mph 19.6 mph N/A   Overcast
1:55 AM 32.0 °F 23.0 °F 17.6 °F 55% 29.89 in 10.0 mi NE 11.5 mph - N/A   Overcast
2:15 AM 32.0 °F 24.2 °F 17.6 °F 55% 29.89 in 10.0 mi ENE 9.2 mph - N/A   Overcast
2:35 AM 32.0 °F 23.0 °F 19.4 °F 60% 29.88 in 10.0 mi ENE 11.5 mph - N/A Snow Light Snow
2:55 AM 32.0 °F 23.6 °F 19.4 °F 60% 29.87 in 10.0 mi NE 10.4 mph - N/A Snow Light Snow
3:15 AM 32.0 °F 22.1 °F 19.4 °F 60% 29.86 in 10.0 mi NE 13.8 mph - N/A   Overcast
3:35 AM 32.0 °F 22.1 °F 19.4 °F 60% 29.85 in 10.0 mi NE 13.8 mph 17.3 mph N/A   Overcast
3:55 AM 32.0 °F 20.8 °F 19.4 °F 60% 29.85 in 10.0 mi NE 17.3 mph 21.9 mph N/A Snow Light Snow
4:15 AM 30.2 °F 18.5 °F 21.2 °F 69% 29.84 in 2.0 mi ENE 17.3 mph 34.5 mph N/A Snow Light Snow
4:35 AM 30.2 °F 19.3 °F 21.2 °F 69% 29.83 in 5.0 mi NE 15.0 mph 21.9 mph N/A Snow Light Snow
4:55 AM 30.2 °F 16.2 °F 21.2 °F 69% 29.82 in 4.0 mi NE 25.3 mph 33.4 mph N/A Snow Light Snow
5:15 AM 30.2 °F 17.8 °F 21.2 °F 69% 29.82 in 5.0 mi ENE 19.6 mph 26.5 mph N/A Snow Light Snow
5:35 AM 28.4 °F 15.1 °F 23.0 °F 80% 29.82 in 0.8 mi ENE 20.7 mph 32.2 mph N/A Snow Snow
5:55 AM 28.4 °F 15.4 °F 26.6 °F 93% 29.82 in 0.5 mi ENE 19.6 mph 27.6 mph N/A Snow Heavy Snow
6:15 AM 28.4 °F 17.0 °F 26.6 °F 93% 29.82 in 0.5 mi ENE 15.0 mph 25.3 mph N/A Snow Heavy Snow
6:35 AM 26.6 °F 13.8 °F 26.6 °F 100% 29.81 in 0.5 mi ENE 17.3 mph 24.2 mph N/A Snow Snow
6:55 AM 26.6 °F 13.1 °F 26.6 °F 100% 29.79 in 0.2 mi ENE 19.6 mph 26.5 mph 0.01 in Snow Heavy Snow
7:15 AM 26.6 °F 12.0 °F 26.6 °F 100% 29.77 in 0.2 mi NE 23.0 mph 31.1 mph N/A Snow Heavy Snow
7:35 AM 28.4 °F 13.8 °F 26.6 °F 93% 29.76 in 0.2 mi NE 25.3 mph 31.1 mph N/A Snow Snow
7:55 AM 28.4 °F 14.4 °F 26.6 °F 93% 29.77 in 0.2 mi ENE 23.0 mph 28.8 mph N/A Snow Heavy Snow
8:15 AM 28.4 °F 15.1 °F 26.6 °F 93% 29.76 in 0.8 mi NE 20.7 mph 31.1 mph N/A Snow Light Snow
8:35 AM 28.4 °F 14.1 °F 26.6 °F 93% 29.75 in 0.2 mi NE 24.2 mph 29.9 mph N/A Snow Heavy Snow
8:55 AM 28.4 °F 15.1 °F 28.4 °F 100% 29.75 in 0.2 mi ENE 20.7 mph 29.9 mph N/A Snow Heavy Snow
9:15 AM 28.4 °F 16.2 °F 26.6 °F 93% 29.75 in 0.2 mi ENE 17.3 mph 27.6 mph N/A Snow Snow
9:35 AM 28.4 °F 15.8 °F 26.6 °F 93% 29.75 in 0.5 mi ENE 18.4 mph 21.9 mph N/A Snow Light Snow
9:55 AM 30.2 °F 17.4 °F 26.6 °F 86% 29.75 in 1.8 mi ENE 20.7 mph 25.3 mph N/A Snow Light Snow
10:15 AM 30.2 °F 18.1 °F 26.6 °F 86% 29.75 in 4.0 mi ENE 18.4 mph 23.0 mph N/A   Overcast
10:35 AM 30.2 °F 18.1 °F 26.6 °F 86% 29.75 in 3.0 mi ENE 18.4 mph 26.5 mph N/A   Overcast
10:55 AM 30.2 °F 18.9 °F 26.6 °F 86% 29.76 in 5.0 mi ENE 16.1 mph 24.2 mph N/A   Overcast
11:15 AM 30.2 °F 17.8 °F 26.6 °F 86% 29.77 in 7.0 mi ENE 19.6 mph 24.2 mph N/A   Overcast
11:35 AM 32.0 °F 20.5 °F 28.4 °F 87% 29.76 in 7.0 mi ENE 18.4 mph 23.0 mph N/A   Overcast
12:15 PM 32.0 °F 21.2 °F 26.6 °F 80% 29.76 in 7.0 mi ENE 16.1 mph 24.2 mph N/A   Overcast
12:35 PM 32.0 °F 20.5 °F 26.6 °F 80% 29.76 in 5.0 mi ENE 18.4 mph 23.0 mph N/A   Haze
12:55 PM 32.0 °F 21.2 °F 28.4 °F 87% 29.76 in 2.5 mi East 16.1 mph 28.8 mph N/A   Overcast
1:15 PM 32.0 °F 21.6 °F 28.4 °F 87% 29.75 in 1.8 mi ENE 15.0 mph 26.5 mph N/A   Overcast
1:35 PM 32.0 °F 21.6 °F 28.4 °F 87% 29.74 in 3.0 mi ENE 15.0 mph 24.2 mph N/A   Overcast
1:55 PM 32.0 °F 20.8 °F 28.4 °F 87% 29.73 in 5.0 mi ENE 17.3 mph - N/A   Overcast
2:15 PM 32.0 °F 20.5 °F 26.6 °F 80% 29.73 in 5.0 mi ENE 18.4 mph 26.5 mph N/A   Haze
2:35 PM 32.0 °F 20.8 °F 26.6 °F 80% 29.72 in 10.0 mi ENE 17.3 mph 25.3 mph N/A   Overcast
2:55 PM 32.0 °F 20.8 °F 26.6 °F 80% 29.72 in 10.0 mi ENE 17.3 mph 27.6 mph N/A   Overcast
3:15 PM 32.0 °F 20.5 °F 26.6 °F 80% 29.72 in 10.0 mi ENE 18.4 mph 26.5 mph N/A   Overcast
3:35 PM 32.0 °F 20.5 °F 26.6 °F 80% 29.73 in 7.0 mi ENE 18.4 mph 24.2 mph N/A   Overcast
4:15 PM 32.0 °F 22.5 °F 28.4 °F 87% 29.73 in 4.0 mi ENE 12.7 mph 19.6 mph N/A   Overcast
4:35 PM 32.0 °F 21.6 °F 28.4 °F 87% 29.73 in 3.0 mi ENE 15.0 mph - N/A   Overcast
4:55 PM 32.0 °F 22.5 °F 28.4 °F 87% 29.74 in 2.5 mi ENE 12.7 mph 21.9 mph N/A Snow Light Snow
5:15 PM 32.0 °F 22.5 °F 30.2 °F 93% 29.74 in 1.2 mi ENE 12.7 mph - N/A Snow Light Snow
5:35 PM 32.0 °F 23.6 °F 28.4 °F 87% 29.75 in 1.5 mi NE 10.4 mph - N/A Snow Light Snow
5:55 PM 32.0 °F 22.1 °F 28.4 °F 87% 29.75 in 7.0 mi ENE 13.8 mph - N/A   Overcast
6:15 PM 32.0 °F 23.6 °F 28.4 °F 87% 29.75 in 7.0 mi NE 10.4 mph - N/A   Overcast
6:35 PM 30.2 °F 20.8 °F 28.4 °F 93% 29.75 in 7.0 mi NNE 11.5 mph 17.3 mph N/A   Overcast
6:55 PM 30.2 °F 21.3 °F 28.4 °F 93% 29.75 in 5.0 mi NE 10.4 mph - N/A   Overcast
7:15 PM 30.2 °F 20.2 °F 28.4 °F 93% 29.74 in 5.0 mi NE 12.7 mph 17.3 mph N/A   Overcast
7:35 PM 30.2 °F 21.3 °F 26.6 °F 86% 29.74 in 7.0 mi NE 10.4 mph - N/A   Overcast
7:55 PM 30.2 °F 20.8 °F 26.6 °F 86% 29.74 in 10.0 mi NNE 11.5 mph 16.1 mph N/A   Overcast
8:15 PM 28.4 °F 18.5 °F 26.6 °F 93% 29.73 in 7.0 mi NE 11.5 mph - N/A   Overcast
8:35 PM 28.4 °F 18.0 °F 26.6 °F 93% 29.73 in 7.0 mi NE 12.7 mph 19.6 mph N/A Snow Light Snow
8:55 PM 28.4 °F 17.0 °F 26.6 °F 93% 29.73 in 10.0 mi NE 15.0 mph 18.4 mph N/A   Overcast
9:15 PM 28.4 °F 18.5 °F 26.6 °F 93% 29.74 in 10.0 mi NE 11.5 mph 19.6 mph N/A   Overcast
9:35 PM 28.4 °F 17.0 °F 24.8 °F 86% 29.75 in 10.0 mi NE 15.0 mph 23.0 mph N/A   Overcast
9:55 PM 28.4 °F 18.0 °F 24.8 °F 86% 29.75 in 10.0 mi NE 12.7 mph 20.7 mph N/A   Overcast
10:15 PM 28.4 °F 18.0 °F 23.0 °F 80% 29.75 in 10.0 mi NE 12.7 mph 19.6 mph N/A   Overcast
10:35 PM 28.4 °F 18.0 °F 23.0 °F 80% 29.75 in 10.0 mi NE 12.7 mph 20.7 mph N/A   Overcast
10:55 PM 28.4 °F 17.5 °F 23.0 °F 80% 29.75 in 7.0 mi NE 13.8 mph 18.4 mph N/A Snow Light Snow
11:15 PM 28.4 °F 19.1 °F 23.0 °F 80% 29.75 in 7.0 mi NE 10.4 mph 18.4 mph N/A Snow Light Snow
11:35 PM 28.4 °F 17.0 °F 23.0 °F 80% 29.75 in 10.0 mi NE 15.0 mph 21.9 mph N/A Snow Light Snow
11:55 PM 28.4 °F 18.5 °F 24.8 °F 86% 29.75 in 5.0 mi NE 11.5 mph - N/A Snow Light Snow